Miscellaneous Hydrologic Data Report
Issued by NWS (Baltimore/Washington) Sterling, VA
1 of 27 available versions  First Miscellaneous Hydrologic Data Report Previous Miscellaneous Hydrologic Data Report  Print this page Close this Window


000
ASUS41 KLWX 250411
RWRLWX

REGIONAL WEATHER ROUNDUP
NATIONAL WEATHER SERVICE BALTIMORE MD/WASHINGTON DC
1200 AM EDT TUE APR 25 2017

Note: "FAIR" indicates few or no clouds below 12,000 feet
with no significant weather and/or obstructions to visibility.
 TC=TEMPERATURE CELSIUS

 * =Non NWS site. Station does not report precipitation (e.g. rain,
    snow, etc.), thunder, or fog.

DCZ001-MDZ009-015-VAZ040>042-051-053>054-250500-
WASHINGTON METRO

CITY           SKY/WX    TMP DP  RH WIND       PRES   REMARKS
WASHINGTON NAT LGT RAIN  54  50  86 NE13      29.99F
DULLES         LGT RAIN  52  48  86 NE8       29.98F
ANDREWS AFB    LGT RAIN  52  48  87 NE8       29.97F
FT BELVOIR     LGT RAIN  52  50  93 CALM      29.98F
QUANTICO       LGT RAIN  55  53  93 NE17      29.97F FOG
COLLEGE PARK*  CLOUDY    52  46  79 NE5       29.99S
LEESBURG*      CLOUDY    52  52 100 NE7       30.00F
MANASSAS*      LGT RAIN  51  49  92 N8        29.98F

$$

MDZ006>007-011-014-250500-
BALTIMORE METRO

CITY           SKY/WX    TMP DP  RH WIND       PRES   REMARKS
BWI AIRPORT    CLOUDY    51  47  86 NE9       30.00F
MD SCIENCE CTR   N/A     53  44  71 MISG      30.02F
MARTIN STATE   CLOUDY    54  50  87 NE5       30.03F
ANNAPOLIS      CLOUDY    54  50  86 NE8       29.98F
FORT MEADE*    CLOUDY    50  45  81 NE5       30.02F

$$

MDZ012-015-019>023-250500-
MARYLAND EASTERN SHORE

CITY           SKY/WX    TMP DP  RH WIND       PRES   REMARKS
OCEAN CITY     FOG       53  52  96 NE13G21   29.95F VSB 1
SALISBURY      CLOUDY    55  55 100 NE16      29.95F
BAY BRIDGE AP* CLOUDY    52  50  93 NE13G20   29.98F
CAMBRIDGE*     CLOUDY    55  54  94 E13G20    29.96F FOG
EASTON*        CLOUDY    55  52  90 E12G20    30.01F

$$

MDZ017>025-250500-
SOUTHERN MARYLAND

CITY           SKY/WX    TMP DP  RH WIND       PRES   REMARKS
PATUXENT RIVER CLOUDY    55  55 100 VRB6      29.94F
ST INIGOES     CLOUDY    56  55  97 NE13G24   29.91F
LEONARDTOWN*   CLOUDY    54  52  94 NE9       29.95F

$$

MDZ003>005-250500-
NORTH CENTRAL MARYLAND

CITY           SKY/WX    TMP DP  RH WIND       PRES   REMARKS
FREDERICK*     CLOUDY    54  54 100 N8        30.04F
HAGERSTOWN APT CLOUDY    52  44  74 N9        30.01F
WESTMINSTER*   CLOUDY    52  45  76 E8        30.01

$$

MDZ501>502-250500-
WESTERN MARYLAND

CITY           SKY/WX    TMP DP  RH WIND       PRES   REMARKS
OAKLAND*       FOG       41  41 100 E18G25    29.95F VSB 1/2
CUMBERLAND*    MOCLDY    52  46  82 CALM      30.05F

$$

VAZ025>031-250500-
SHENANDOAH VALLEY

CITY           SKY/WX    TMP DP  RH WIND       PRES   REMARKS
WINCHESTER*    CLOUDY    46  45  93 CALM      30.00F
FRONT ROYAL*   CLOUDY    48  48 100 N3        29.99F
LURAY*         LGT RAIN  50  50 100 NE6       29.98F
NEW MARKET*    CLOUDY    48  46  95 N12G18    29.97F
STAUNTON*      LGT RAIN  47  47  97 N7        29.97F
WAYNESBORO*    CLOUDY    46  46 100 NW7       29.95S

$$

WVZ021-048>050-054>055-250500-
EASTERN WEST VIRGINIA PANHANDLE

CITY           SKY/WX    TMP DP  RH WIND       PRES   REMARKS
MARTINSBURG    CLOUDY    50  46  86 N7        30.01F
PETERSBURG*    DRIZZLE   50  48  95 N3        30.00F

$$

VAZ036>039-050-250500-
CENTRAL FOOTHILLS

CITY           SKY/WX    TMP DP  RH WIND       PRES   REMARKS
CHARLOTTESVILL CLOUDY    52  50  93 NE17G23   29.93F
CULPEPER*      LGT RAIN  52  51  97 N6        29.98F
ORANGE*        RAIN      50  48  93 NE10G16   29.95F
GORDONSVILLE*  CLOUDY    50  50  99 NE12      29.94F
WARRENTON*     DRIZZLE   52  48  87 NE6       29.97F

$$

VAZ055>057-250500-
NORTH AND CENTRAL PIEDMONT

CITY           SKY/WX    TMP DP  RH WIND       PRES   REMARKS
FREDERICKSBRG* CLOUDY    53  53 100 NE8       29.94F
STAFFORD*      RAIN      51  51 100 NE9G18    29.98F

$$

NCZ024-NYZ072-PAZ021-071-VAZ022-071-250500-
OTHER REGIONAL OBSERVATIONS

CITY           SKY/WX    TMP DP  RH WIND       PRES   REMARKS
NEW YORK CITY  CLOUDY    51  44  77 E7        30.15F
PHILADELPHIA   LGT RAIN  52  45  76 E12       30.06F
PITTSBURGH     CLOUDY    54  45  71 E8        29.96S
ROANOKE        LGT RAIN  51  49  92 NE14      29.87F
RICHMOND       DRIZZLE   55  55 100 NE16G23   29.86F FOG
RALEIGH        RAIN      60  59  96 NE12      29.67S FOG

$$

ANZ530>537-250500-
MARINE OBSERVATIONS

STATION/POSITION TIME  TEMP    WIND        PRES
                       AIR SEA DIR/SP/G
                 (UTC) (F)     (DEG/KT/KT) (MB)
THOMAS PT LIGHT  0400   53 56   50/ 15/ 17   N/A
BALT KEY BRIDGE  0342   53      50/  6/  8 1016.3F
COVE POINT       0342   55      90/ 20/ 24 1014.5F
LEWISETTA        0342   57 61   80/ 15/ 20 1012.8F
SOLOMONS ISLAND  0348           50/  6/ 10   N/A
PINEY POINT      0348           80/ 13/ 18   N/A

$$



Close this window


The National Weather Service prepares its forecasts and other services in collaboration with agencies like the US Geological Survey, US Bureau of Reclamation, US Army Corps of Engineers, Natural Resource Conservation Service, National Park Service, ALERT Users Group, Bureau of Indian Affairs, and many state and local emergency managers across the country. For details, please click here.

National Weather Service
(Baltimore/Washington) Sterling Weather Forecast Office
43858 Weather Service Rd.
Sterling, VA 20166
(703) 996-2200
Page last modified: 25-Apr-2017 4:11 AM
Disclaimer
Credits
Glossary
Privacy Policy
About Us
Career Opportunities